Location: Katowice
(50.2611°N, 19.0242°E)
Time: 10:08:05
(UTC+02:00)

Explorer 7 - Pass Details

Date: 31 August 2019
Orbit: 485 x 680 km, 50.3° (Epoch: 22 September)

Event Time Altitude Azimuth Distance (km) Brightness Sun altitude
Rises 12:13:21 0° 286° (WNW) 2,985 10.4 47.9°
Reaches altitude 10° 12:15:50 10° 280° (W) 2,047 9.7 48.0°
Maximum altitude 12:20:17 43° 209° (SSW) 875 9.2 48.1°
Drops below altitude 10° 12:24:29 10° 138° (SE) 1,928 10.3 48.2°
Sets 12:26:46 0° 131° (SE) 2,792 10.9 48.2°
